Regional Weather Roundup
Issued by NWS

Home | Current Version | Previous Version | Text Only | Print | Product List | Glossary Off
Versions: 1 2 3 4 5 6 7 8 9 10 11 12 13 14 15 16 17 18 19 20 21 22 23 24 25 26 27 28 29 30 31 32 33 34 35 36 37 38 39 40 41 42 43 44 45 46 47 48 49 50

000
ASUS45 KCYS 270110
RWRWY

WYOMING REGIONAL WEATHER ROUNDUP
NATIONAL WEATHER SERVICE CHEYENNE WY
700 PM MDT FRI AUG 26 2016

NOTE:  "FAIR" INDICATES FEW OR NO CLOUDS BELOW 12,000 FEET
WITH NO SIGNIFICANT WEATHER AND/OR OBSTRUCTIONS TO VISIBILITY.

WYZ001-270200-
YELLOWSTONE NATIONAL PARK

CITY           SKY/WX    TMP DP  RH WIND       PRES   REMARKS
LK YELLOWSTONE   N/A     60  25  26 W8        30.16S
W YELLOWSTONE  NOT AVBL

$$
WYZ002>013-054>058-071-098>099-270200-
NORTHERN WYOMING

CITY           SKY/WX    TMP DP  RH WIND       PRES   REMARKS
JACKSON        SUNNY     68  19  15 MISG      30.08R
CODY           FAIR      61  45  55 N5        30.05F
GREYBULL       FAIR      69  39  33 E8        29.98F
WORLAND        FAIR      70  39  32 SW6       29.99F
SHERIDAN       CLOUDY    58  44  60 NW22G35   30.03R
BUFFALO        FAIR      67  39  35 N9        30.05R
GILLETTE       FAIR      67  44  43 E7        30.01R
HULETT         FAIR      55  50  82 E10       30.05F
NEWCASTLE      FAIR      64  46  52 SE6       30.02S

$$
WYZ014>020-022>026-101>103-270200-
CENTRAL WYOMING

CITY           SKY/WX    TMP DP  RH WIND       PRES   REMARKS
BIG PINEY      FAIR      63  32  31 E8        30.13R
PINEDALE       FAIR      63  32  31 CALM      30.13S
DUBOIS         FAIR      61  32  33 SE6       30.11R
LANDER         FAIR      65  43  44 E8        30.03S
RIVERTON       FAIR      66  40  38 E6        30.03F
CASPER         MOCLDY    61  46  57 N13       30.04R
DOUGLAS        FAIR      70  40  33 E6        30.01S

$$
WYZ021-027>030-104>119-270200-
SOUTHERN WYOMING

CITY           SKY/WX    TMP DP  RH WIND       PRES   REMARKS
EVANSTON       FAIR      69  19  15 W17G25    30.13F
FORT BRIDGER   FAIR      70  28  21 W18G28    30.15S
ROCK SPRINGS   FAIR      63  34  33 S13       30.11F
DIXON          CLOUDY    63  37  37 CALM      30.18R
RAWLINS        FAIR      61  36  39 SW14      30.14R
SARATOGA       FAIR      63  32  31 SW17G26   30.15F
LARAMIE        MOCLDY    62  32  32 W16G30    30.15R
CHEYENNE       MOCLDY    59  47  64 E10       30.12R
TORRINGTON     FAIR      64  54  69 SE12      30.02S
PINE BLUFFS    FAIR      59  50  72 S9        30.08F

$$



USA.gov is the U.S. government's official web portal to all federal, state and local government web resources and services.